Burlington, IA

2:37 PM CDT on March 29, 2017 (GMT -0500)
Burlington Regional

Weather History for KBRL - April, 2013

Change the Weather History Date:

Monday, April 22, 2013

  Actual Average Record
Temperature  
Mean Temperature 58 °F 56 °F  
Max Temperature 69 °F 67 °F 89 °F (1980)
Min Temperature 47 °F 45 °F 27 °F (1986)
Degree Days  
Heating Degree Days 7 10  
Month to date heating degree days 362 290  
Since 1 July heating degree days 5688 5396  
Cooling Degree Days 0 1  
Month to date cooling degree days 0 12  
Year to date cooling degree days 0 14  
Growing Degree Days 8 (Base 50)    
Moisture  
Dew Point 39 °F    
Average Humidity 57    
Maximum Humidity 86    
Minimum Humidity 28    
Precipitation  
Precipitation 0.03 in 0.14 in 1.59 in (1999)
Month to date precipitation 5.30 2.58  
Year to date precipitation 11.22 8.23  
Sea Level Pressure  
Sea Level Pressure 30.11 in    
Wind  
Wind Speed 9 mph (South)    
Max Wind Speed 17 mph    
Max Gust Speed 24 mph    
Visibility 10 miles    
Events Rain    
T = Trace of Precipitation, MM = Missing Value Source: NWS Daily Summary

Daily Weather History Graph

Daily Weather History Graph

Search for Another Location

Airport or City:

Trip Planner

Search our weather history database for the weather conditions in past years. The results will help you decide how hot, cold, wet, or windy it might be!

Date:

Astronomy

Apr. 22, 2013 Rise Set
Actual Time 6:14 AM CDT 7:51 PM CDT
Civil Twilight 5:45 AM CDT 8:20 PM CDT
Nautical Twilight 5:11 AM CDT 8:55 PM CDT
Astronomical Twilight 4:33 AM CDT 9:33 PM CDT
Moon 4:39 PM CDT (4/22) 4:10 AM CDT (4/22)
Length of Visible Light 14h 34m
Length of Day
13h 36m
Waxing Gibbous, 88% of the Moon is Illuminated
Apr 22
Waxing Gibbous
Apr 25
Full
May 2
Last Quarter
May 9
New
May 17
First Quarter

Hourly Weather History & Observations

Time (CDT) Temp. Dew Point Humidity Pressure Visibility Wind Dir Wind Speed Gust Speed Precip Events Conditions
12:53 AM 52.0 °F 39.0 °F 61% 30.23 in 10.0 mi SSE 10.4 mph - N/A   Mostly Cloudy
1:53 AM 52.0 °F 39.0 °F 61% 30.22 in 10.0 mi South 9.2 mph - N/A   Overcast
2:53 AM 50.0 °F 37.0 °F 61% 30.21 in 10.0 mi South 10.4 mph - N/A   Scattered Clouds
3:53 AM 48.9 °F 36.0 °F 61% 30.20 in 10.0 mi South 10.4 mph - N/A   Clear
4:53 AM 48.9 °F 36.0 °F 61% 30.20 in 10.0 mi South 10.4 mph 17.3 mph N/A   Mostly Cloudy
5:53 AM 48.0 °F 35.1 °F 61% 30.19 in 10.0 mi South 10.4 mph - N/A   Partly Cloudy
6:53 AM 48.9 °F 35.1 °F 59% 30.19 in 10.0 mi South 10.4 mph - N/A   Partly Cloudy
7:53 AM 51.1 °F 35.1 °F 54% 30.19 in 10.0 mi South 11.5 mph 20.7 mph N/A   Clear
8:53 AM 54.0 °F 36.0 °F 51% 30.18 in 10.0 mi South 13.8 mph - N/A   Clear
9:53 AM 57.9 °F 37.9 °F 47% 30.18 in 10.0 mi South 12.7 mph - N/A   Clear
10:53 AM 61.0 °F 37.0 °F 41% 30.17 in 10.0 mi South 12.7 mph - N/A   Clear
11:53 AM 64.0 °F 41.0 °F 43% 30.16 in 10.0 mi South 10.4 mph - N/A   Clear
12:53 PM 66.0 °F 39.9 °F 38% 30.13 in 10.0 mi South 11.5 mph - N/A   Clear
1:53 PM 66.0 °F 39.9 °F 38% 30.09 in 10.0 mi South 10.4 mph - N/A   Clear
2:53 PM 68.0 °F 39.9 °F 36% 30.05 in 10.0 mi SSE 10.4 mph - N/A   Clear
3:53 PM 69.1 °F 36.0 °F 30% 30.01 in 10.0 mi South 17.3 mph - N/A   Clear
4:53 PM 66.0 °F 36.0 °F 33% 29.99 in 10.0 mi South 11.5 mph - N/A   Clear
5:53 PM 64.9 °F 37.0 °F 36% 29.99 in 10.0 mi South 10.4 mph - N/A   Clear
6:53 PM 64.0 °F 39.0 °F 40% 29.97 in 10.0 mi SSE 8.1 mph - N/A   Clear
7:53 PM 63.0 °F 39.9 °F 43% 29.98 in 10.0 mi SSE 5.8 mph - N/A   Mostly Cloudy
8:53 PM 60.1 °F 41.0 °F 49% 29.99 in 10.0 mi South 3.5 mph - N/A   Mostly Cloudy
9:53 PM 59.0 °F 46.0 °F 62% 30.03 in 8.0 mi SSW 11.5 mph - 0.01 in Rain Light Rain
10:53 PM 55.0 °F 51.1 °F 86% 30.02 in 10.0 mi Calm Calm - 0.01 in Rain Light Rain
11:53 PM 55.0 °F 48.9 °F 80% 30.01 in 10.0 mi Calm Calm - 0.00 in Rain Light Rain